Location: Bittkow
(50.3000°N, 19.0000°E)
Time: 16:33:29
(UTC+00:00)

Cosmos 1980 Rocket - Pass Details

Date: 19 September 2020
Orbit: 831 x 848 km, 71.0° (Epoch: 31 October)

Event Time Altitude Azimuth Distance (km) Brightness Sun altitude
Exits shadow 00:53:48 13° 126° (SE) 2,227 4.4 -30.7°
Maximum altitude 00:56:07 17° 98° (E) 2,021 4.5 -30.5°
Drops below altitude 10° 00:59:36 10° 60° (ENE) 2,470 5.4 -30.1°
Sets 01:02:52 0° 41° (NE) 3,407 6.6 -29.8°
